Theta_e
342 341 343 345 346 346 345 344 344 345 347 347 346 345 344 344 347 348 348 349 349 349 349 349 350 351 350 350 348 347 347 346 345
342 343 343 344 345 344 343 343 343 344 345 345 344 343 340 344 345 347 348 348 349 349 348 347 348 349 349 349 347 346 345 345 345
343 343 343 343 344 343 342 342 343 344 345 344 343 340 338 341 343 344 346 345 348 349 348 349 348 346 346 347 346 345 345 345 343
339 341 343 343 342 341 340 340 343 344 343 341 339 337 336 341 342 342 346 344 345 346 347 348 348 347 347 346 346 344 344 343 342
333 336 340 341 340 339 339 338 339 340 339 338 336 334 335 339 340 342 343 345 344 345 345 346 346 346 347 346 346 345 344 345 344
330 331 337 339 338 338 337 336 334 332 333 334 333 333 336 337 338 340 342 345 343 343 343 343 345 346 345 345 344 344 344 343 342
326 327 330 332 333 334 333 331 330 331 332 331 331 334 334 334 335 338 341 343 345 345 345 344 344 344 344 344 344 344 343 341 341
321 326 330 329 326 329 328 328 327 328 327 327 327 328 330 331 332 330 338 341 342 343 343 343 343 342 343 344 343 342 341 339 339
316 321 325 328 328 327 326 323 324 323 322 321 321 323 326 327 328 326 329 337 341 341 341 340 340 339 338 341 340 340 340 338 337
314 317 320 324 328 328 323 321 321 321 320 319 318 319 321 322 323 324 323 328 334 338 339 340 340 337 336 339 339 338 337 336 336
307 308 311 313 320 327 324 322 320 319 318 317 318 318 319 320 319 318 322 323 325 331 334 336 339 339 337 338 337 335 335 335 335
301 302 303 307 313 321 321 320 318 317 316 314 316 316 316 318 317 317 316 319 320 323 328 330 332 335 339 337 336 335 334 334 335
297 298 298 302 304 307 313 318 316 315 314 313 314 315 314 314 314 315 315 315 317 318 321 324 325 328 331 334 337 337 336 335 334
294 294 295 298 300 299 301 311 316 314 313 313 315 314 314 313 312 312 312 313 316 316 317 317 318 322 326 329 331 332 334 336 336
292 292 293 295 296 296 299 302 312 312 312 312 313 314 313 312 311 311 312 313 314 314 315 317 316 316 320 322 325 327 329 331 335
288 290 291 292 292 294 295 297 303 312 306 312 311 313 310 310 310 310 311 311 312 313 313 314 314 315 315 317 320 321 324 326 328
284 285 287 288 290 291 293 295 297 301 303 302 308 305 307 309 308 309 309 309 310 311 311 312 312 314 315 314 315 316 319 322 325
280 281 283 285 286 287 291 292 293 295 299 298 300 301 300 303 309 307 309 309 309 310 310 310 310 311 312 312 313 313 315 319 322
278 279 280 281 283 284 287 290 290 293 291 295 296 297 298 300 300 307 308 307 308 310 310 310 310 310 311 310 309 310 313 317 320
276 276 277 277 279 281 285 287 288 289 290 291 292 294 296 295 294 295 300 300 306 308 309 309 309 309 309 309 308 308 311 315 318
Wind_Speed
19 13 10 13 11 13 15 14 14 14 12 13 14 15 12 8 8 7 6 8 13 14 14 14 15 14 16 16 16 16 15 15 15
14 12 11 10 13 14 13 14 13 13 11 14 14 14 10 9 8 6 5 7 13 14 14 13 14 14 15 15 14 14 14 14 14
15 13 12 13 13 14 13 15 12 11 13 15 15 13 10 8 9 7 5 6 10 13 12 13 13 13 14 13 13 13 13 14 13
15 15 13 13 15 13 14 14 14 15 15 15 15 14 11 9 7 7 5 6 7 10 9 12 12 12 12 13 12 12 12 13 11
14 12 13 15 15 16 17 16 14 15 15 14 15 13 11 9 8 7 6 9 6 8 10 8 9 11 12 11 10 10 10 11 11
11 13 13 15 15 14 14 14 13 12 13 14 13 10 6 8 7 6 10 11 9 10 6 8 9 10 9 9 9 9 10 10 10
8 10 13 14 12 13 14 14 13 10 7 6 9 6 8 8 7 7 10 12 12 11 11 9 8 6 7 5 8 11 11 9 9
6 5 5 6 8 5 7 7 7 9 6 7 7 7 7 6 6 11 16 14 13 12 11 10 8 8 9 11 9 9 10 7 7
8 6 5 6 4 6 6 4 7 9 8 8 8 8 7 6 5 8 16 18 18 13 12 9 7 7 5 6 7 6 8 6 6
7 7 7 7 4 3 5 5 7 7 8 7 7 8 8 9 5 4 14 17 18 17 16 14 11 3 2 4 6 4 3 4 5
8 8 8 7 7 6 5 5 5 5 5 6 7 8 7 7 7 5 6 14 15 15 16 16 17 12 2 4 4 1 1 2 2
11 9 8 9 7 6 4 5 5 4 3 9 8 5 6 6 6 5 4 7 11 14 15 15 16 17 16 6 3 4 1 2 3
12 10 10 10 8 7 6 5 4 4 6 3 4 4 5 6 6 4 4 4 5 7 13 13 14 15 15 16 16 10 5 5 5
12 10 10 11 8 8 8 6 6 5 6 5 4 3 3 4 4 5 5 5 5 5 7 11 12 13 14 15 16 16 17 10 8
12 11 12 11 9 9 10 8 7 6 6 4 5 3 3 3 5 6 4 4 6 5 6 6 6 11 14 14 15 15 16 17 16
15 10 11 11 11 11 12 7 7 8 10 3 6 3 3 5 5 5 5 4 4 5 5 4 3 5 10 12 14 15 16 16 17
13 13 11 13 9 13 14 13 5 5 8 4 3 3 1 3 3 4 3 6 5 7 7 7 8 6 5 8 12 13 15 17 17
14 14 12 12 10 9 12 12 13 6 4 8 4 4 3 6 1 4 5 8 6 6 7 8 7 7 6 8 10 14 15 16 17
14 14 13 12 9 11 10 10 9 8 7 4 7 5 3 3 4 2 5 9 8 8 5 5 6 6 6 9 10 15 18 19 18
14 14 13 13 9 10 12 11 11 8 6 6 5 4 5 6 3 5 5 8 6 6 6 6 6 7 8 8 11 18 19 20 20
Wind_Direction
97 85 69 68 69 66 63 51 46 45 69 79 77 71 60 62 72 72 88 98 104 105 97 92 87 85 93 91 91 87 86 85 82
80 94 80 75 69 63 65 55 41 44 78 79 75 75 69 70 63 59 69 107 109 107 102 98 94 87 85 90 96 95 92 86 81
60 68 85 78 71 65 54 55 43 48 79 74 69 59 55 68 66 58 55 87 113 112 110 104 100 98 94 90 91 90 87 85 85
53 50 63 65 67 66 62 55 53 62 67 66 66 54 45 62 57 54 51 61 92 99 102 106 102 104 105 103 99 98 98 95 89
47 45 48 67 58 49 46 48 55 60 61 64 62 54 46 50 49 50 47 56 82 109 120 115 110 99 88 90 101 100 98 91 77
43 36 52 65 63 58 61 58 53 52 55 53 56 59 52 44 37 36 38 50 60 74 98 107 110 101 99 102 101 97 91 86 87
49 42 44 54 59 62 62 57 50 46 45 42 40 60 57 50 38 22 26 50 48 54 66 79 89 98 108 95 115 98 89 88 88
40 43 41 47 37 55 58 58 53 55 44 44 41 44 52 48 44 18 20 44 51 55 61 64 67 75 78 81 77 97 93 89 88
38 39 34 45 31 64 60 60 64 61 57 54 50 41 42 44 41 23 25 36 40 41 51 49 56 52 45 73 86 72 96 102 96
33 34 36 30 14 62 67 60 59 59 61 62 58 49 40 46 27 19 29 35 37 40 39 35 17 4 45 74 85 78 96 107 115
31 30 27 18 7 49 65 71 71 58 52 62 57 51 37 38 33 20 22 31 30 29 31 28 26 18 166 110 97 104 120 129 143
33 32 26 15 9 15 27 39 44 43 26 35 32 38 37 32 26 26 21 21 25 20 23 26 25 24 21 353 203 171 218 244 235
36 33 25 10 18 18 11 22 38 44 35 17 31 8 13 15 18 18 33 30 17 10 13 19 23 23 22 20 19 10 259 218 249
38 34 25 18 22 20 10 1 15 30 13 355 355 315 336 355 350 9 16 24 22 12 1 14 16 15 17 14 12 9 5 345 245
34 34 30 26 30 24 18 11 8 37 8 333 320 341 0 354 0 351 355 11 12 2 354 12 0 5 10 10 4 0 355 355 348
30 33 30 26 33 28 21 353 6 29 10 336 348 336 50 52 27 15 11 16 3 350 352 357 346 358 352 0 352 350 345 346 342
32 29 27 29 28 27 26 22 358 15 29 356 303 343 24 17 26 15 31 44 358 360 6 1 2 358 343 345 340 341 340 333 330
29 30 30 29 27 29 26 20 22 1 359 13 360 348 8 333 24 41 15 8 8 4 356 356 355 354 340 334 333 334 331 326 319
30 31 30 31 27 30 21 23 23 19 19 342 12 345 353 326 313 7 21 3 353 352 347 346 344 343 336 334 325 333 333 327 321
31 31 31 31 26 26 24 27 29 28 25 21 349 359 343 28 320 307 334 336 333 347 340 333 333 347 355 353 351 342 337 332 326